カタログに戻る

STARLINK-35488

運用中通信VLEO
NORAD 66254·PAYLOAD·🇺🇸 United States

打ち上げ Oct 29, 2025 から Cape Canaveral Space Force Station

Loading…

次のパス (今後24時間)

TLE

最新Source: CelesTrak SupGP

元期: Sep 14, 2026, 21:18 UTC

1 66254C 25245W   26257.88798611 -.00072509  00000+0 -23317-2 0  2570
2 66254  53.1569 123.9089 0001267  87.7060 149.2719 15.31737625    14

AllMySatでSTARLINK-35488をリアルタイム追跡

Download on the App Store